QPF
0.02 0.03 0.03 0.02 0.00 0.01 0.00 0.00 0.00 0.00 0.00 0.00 0.00 0.00 0.00 0.00 0.00 0.00 0.00 0.00 0.00 0.03 0.02 0.05 0.05 0.00 0.00 0.00 0.00 0.00 0.00 0.00 0.00 0.00 0.00 0.00 0.00 0.00 0.00 0.00 0.00 0.00
0.06 0.01 0.01 0.01 0.01 0.10 0.01 0.00 0.00 0.00 0.00 0.00 0.00 0.00 0.00 0.00 0.00 0.00 0.00 0.00 0.13 0.00 0.00 0.00 0.00 0.00 0.00 0.00 0.00 0.00 0.00 0.00 0.00 0.00 0.00 0.00 0.00 0.00 0.00 0.00 0.00 0.00
0.00 0.00 0.00 0.00 0.03 0.03 0.00 0.00 0.00 0.00 0.00 0.00 0.00 0.00 0.00 0.00 0.02 0.02 0.00 0.00 0.00 0.00 0.00 0.00 0.00 0.00 0.05 0.01 0.00 0.00 0.00 0.00 0.00 0.00 0.00 0.00 0.00 0.00 0.00 0.00 0.00 0.00
0.00 0.00 0.00 0.00 0.00 0.00 0.03 0.03 0.00 0.00 0.00 0.00 0.00 0.00 0.00 0.00 0.01 0.02 0.05 0.00 0.00 0.00 0.00 0.01 0.03 0.03 0.02 0.07 0.00 0.00 0.00 0.00 0.00 0.00 0.00 0.00 0.00 0.00 0.00 0.00 0.00 0.00
0.00 0.00 0.00 0.00 0.00 0.00 0.00 0.00 0.00 0.00 0.00 0.00 0.00 0.00 0.00 0.00 0.00 0.01 0.00 0.01 0.00 0.02 0.02 0.05 0.07 0.06 0.04 0.04 0.00 0.00 0.00 0.00 0.00 0.00 0.00 0.00 0.00 0.00 0.00 0.00 0.00 0.00
0.00 0.00 0.00 0.00 0.00 0.00 0.00 0.00 0.00 0.00 0.00 0.00 0.00 0.00 0.00 0.00 0.03 0.12 0.09 0.03 0.03 0.11 0.15 0.35 0.06 0.03 0.00 0.00 0.00 0.00 0.00 0.00 0.00 0.00 0.00 0.00 0.00 0.00 0.00 0.00 0.00 0.00
0.00 0.00 0.00 0.00 0.00 0.00 0.00 0.00 0.00 0.00 0.00 0.00 0.00 0.00 0.00 0.04 0.08 0.12 0.12 0.23 0.25 0.14 0.29 0.48 0.08 0.08 0.10 0.00 0.00 0.00 0.00 0.00 0.00 0.00 0.00 0.00 0.00 0.00 0.00 0.00 0.00 0.00
0.00 0.00 0.00 0.00 0.00 0.00 0.00 0.00 0.00 0.00 0.00 0.00 0.00 0.00 0.00 0.02 0.06 0.08 0.12 0.44 0.41 0.43 0.16 0.11 0.30 0.30 0.18 0.03 0.00 0.00 0.01 0.02 0.02 0.00 0.00 0.00 0.00 0.00 0.00 0.00 0.00 0.00
0.00 0.00 0.00 0.00 0.00 0.00 0.00 0.00 0.00 0.00 0.00 0.00 0.00 0.00 0.00 0.02 0.05 0.17 0.22 0.43 0.25 0.39 0.15 0.40 0.46 0.23 0.08 0.05 0.01 0.01 0.00 0.01 0.05 0.01 0.00 0.00 0.00 0.00 0.00 0.00 0.00 0.00
0.00 0.00 0.00 0.00 0.00 0.00 0.00 0.00 0.00 0.00 0.00 0.00 0.00 0.00 0.00 0.00 0.09 0.13 0.24 0.36 0.35 0.17 0.79 0.48 0.43 0.16 0.13 0.27 0.20 0.03 0.01 0.02 0.04 0.01 0.00 0.00 0.00 0.00 0.00 0.00 0.00 0.00
0.00 0.00 0.00 0.00 0.00 0.00 0.00 0.00 0.00 0.00 0.00 0.00 0.00 0.00 0.00 0.00 0.00 0.13 0.23 0.18 0.16 0.48 0.76 0.37 0.36 0.32 0.24 0.51 0.34 0.22 0.11 0.04 0.07 0.01 0.01 0.00 0.00 0.00 0.00 0.00 0.00 0.00
0.00 0.00 0.00 0.00 0.00 0.00 0.00 0.00 0.00 0.00 0.00 0.00 0.00 0.00 0.00 0.00 0.01 0.07 0.55 0.13 0.41 0.31 0.54 0.61 0.53 0.23 0.42 0.42 0.31 0.27 0.20 0.19 0.07 0.04 0.01 0.00 0.00 0.00 0.00 0.00 0.00 0.00
0.00 0.00 0.00 0.00 0.00 0.00 0.00 0.00 0.00 0.00 0.00 0.00 0.00 0.00 0.00 0.00 0.00 0.09 0.18 0.26 0.53 0.25 0.71 0.29 0.17 0.30 0.42 0.28 0.30 0.21 0.13 0.09 0.09 0.01 0.00 0.00 0.00 0.00 0.00 0.00 0.00 0.00
0.00 0.00 0.00 0.00 0.00 0.00 0.00 0.00 0.00 0.00 0.00 0.00 0.00 0.00 0.00 0.00 0.00 0.19 0.18 0.36 0.43 0.34 0.29 0.54 0.45 0.31 0.59 0.29 0.34 0.23 0.11 0.02 0.02 0.01 0.00 0.00 0.00 0.00 0.00 0.00 0.00 0.00
0.00 0.00 0.00 0.00 0.00 0.00 0.00 0.00 0.00 0.00 0.00 0.00 0.00 0.00 0.00 0.00 0.02 0.09 0.12 0.09 0.06 0.30 0.46 0.46 0.37 0.26 0.36 0.41 0.52 0.31 0.17 0.09 0.01 0.01 0.00 0.00 0.00 0.00 0.00 0.00 0.00 0.00
0.00 0.00 0.00 0.00 0.00 0.00 0.00 0.00 0.00 0.00 0.00 0.00 0.00 0.00 0.00 0.00 0.00 0.04 0.08 0.10 0.10 0.14 0.31 0.34 0.31 0.30 0.29 0.35 0.42 0.36 0.18 0.06 0.03 0.01 0.00 0.00 0.00 0.00 0.00 0.00 0.00 0.00
0.00 0.00 0.00 0.00 0.00 0.00 0.00 0.00 0.00 0.00 0.00 0.00 0.00 0.00 0.00 0.00 0.00 0.00 0.00 0.05 0.22 0.22 0.08 0.16 0.56 0.27 0.25 0.34 0.30 0.25 0.16 0.06 0.11 0.00 0.00 0.00 0.00 0.00 0.00 0.00 0.00 0.00
0.00 0.00 0.00 0.00 0.00 0.00 0.00 0.00 0.00 0.00 0.00 0.00 0.00 0.00 0.00 0.00 0.00 0.00 0.00 0.04 0.11 0.07 0.15 0.17 0.25 0.33 0.38 0.39 0.40 0.30 0.17 0.34 0.23 0.07 0.00 0.00 0.00 0.00 0.00 0.00 0.00 0.00
0.00 0.00 0.00 0.00 0.00 0.00 0.00 0.00 0.00 0.00 0.00 0.00 0.00 0.00 0.00 0.00 0.00 0.00 0.00 0.05 0.15 0.44 0.20 0.17 0.27 0.30 0.32 0.38 0.29 0.34 0.19 0.19 0.23 0.18 0.15 0.06 0.01 0.00 0.00 0.00 0.00 0.00
0.00 0.00 0.00 0.00 0.00 0.00 0.00 0.00 0.00 0.00 0.00 0.00 0.00 0.00 0.00 0.00 0.00 0.00 0.00 0.00 0.01 0.03 0.07 0.13 0.30 0.45 0.35 0.41 0.32 0.29 0.25 0.14 0.20 0.15 0.14 0.05 0.00 0.00 0.00 0.00 0.00 0.00
0.00 0.00 0.00 0.00 0.00 0.00 0.00 0.00 0.00 0.00 0.00 0.00 0.00 0.00 0.00 0.00 0.00 0.00 0.00 0.00 0.01 0.04 0.07 0.13 0.15 0.30 0.41 0.44 0.44 0.41 0.38 0.25 0.18 0.21 0.17 0.13 0.02 0.00 0.00 0.00 0.00 0.00
0.00 0.00 0.00 0.00 0.00 0.00 0.00 0.00 0.00 0.00 0.00 0.00 0.00 0.00 0.00 0.00 0.00 0.00 0.00 0.00 0.00 0.02 0.11 0.15 0.19 0.26 0.37 0.59 0.52 0.47 0.43 0.50 0.32 0.25 0.13 0.13 0.01 0.00 0.00 0.00 0.00 0.00
0.00 0.00 0.00 0.00 0.00 0.00 0.00 0.00 0.00 0.00 0.00 0.00 0.00 0.00 0.00 0.00 0.00 0.00 0.00 0.00 0.00 0.01 0.02 0.07 0.16 0.23 0.28 0.40 0.40 0.44 0.48 0.47 0.32 0.23 0.10 0.11 0.07 0.01 0.00 0.00 0.00 0.00
0.00 0.00 0.00 0.00 0.00 0.00 0.00 0.00 0.00 0.00 0.00 0.00 0.00 0.00 0.00 0.00 0.00 0.00 0.00 0.00 0.00 0.00 0.00 0.00 0.03 0.15 0.34 0.48 0.45 0.49 0.48 0.49 0.38 0.35 0.15 0.08 0.04 0.02 0.00 0.00 0.00 0.00
0.00 0.00 0.00 0.00 0.00 0.00 0.00 0.00 0.00 0.00 0.00 0.00 0.00 0.00 0.00 0.00 0.00 0.00 0.00 0.00 0.00 0.00 0.00 0.00 0.00 0.03 0.17 0.40 0.44 0.51 0.64 0.62 0.54 0.51 0.38 0.26 0.07 0.02 0.01 0.00 0.00 0.00
0.00 0.00 0.00 0.00 0.00 0.00 0.00 0.00 0.00 0.00 0.00 0.00 0.00 0.00 0.00 0.00 0.00 0.00 0.00 0.00 0.00 0.00 0.00 0.00 0.00 0.00 0.02 0.08 0.25 0.38 0.47 0.49 0.44 0.48 0.43 0.34 0.19 0.08 0.03 0.00 0.00 0.00
MSLP
1020.46 1020.34 1020.22 1020.06 1019.94 1019.78 1019.58 1019.38 1019.14 1018.98 1018.74 1018.54 1018.42 1018.14 1017.90 1017.54 1017.22 1017.10 1016.90 1016.82 1016.78 1016.86 1016.82 1016.90 1017.06 1016.86 1016.70 1016.70 1016.86 1016.94 1016.90 1016.78 1016.82 1016.90 1016.90 1016.98 1016.98 1016.98 1017.06 1017.06 1017.06 1017.06
1020.54 1020.42 1020.22 1020.10 1019.90 1019.70 1019.54 1019.38 1019.14 1018.98 1018.74 1018.54 1018.34 1018.14 1017.78 1017.50 1017.14 1016.98 1016.78 1016.66 1016.62 1016.38 1016.22 1016.38 1016.54 1016.54 1016.46 1016.50 1016.66 1016.78 1016.78 1016.74 1016.66 1016.82 1016.74 1016.82 1016.90 1016.94 1016.94 1016.98 1016.90 1017.02
1020.74 1020.54 1020.38 1020.26 1020.14 1019.86 1019.62 1019.38 1019.22 1018.98 1018.78 1018.54 1018.34 1018.14 1017.82 1017.46 1017.18 1016.78 1016.62 1016.50 1016.42 1016.18 1015.98 1016.10 1016.14 1016.14 1016.30 1016.34 1016.38 1016.50 1016.54 1016.58 1016.58 1016.66 1016.66 1016.62 1016.78 1016.82 1016.82 1016.78 1016.78 1016.82
1020.86 1020.74 1020.62 1020.42 1020.18 1019.98 1019.70 1019.46 1019.14 1018.94 1018.70 1018.46 1018.26 1018.02 1017.78 1017.46 1017.14 1016.82 1016.50 1016.34 1016.30 1016.22 1016.06 1015.98 1015.98 1015.94 1016.18 1016.34 1016.26 1016.26 1016.30 1016.34 1016.34 1016.50 1016.50 1016.62 1016.70 1016.70 1016.70 1016.74 1016.70 1016.70
1021.26 1020.98 1020.78 1020.58 1020.34 1020.10 1019.86 1019.62 1019.34 1019.10 1018.86 1018.58 1018.22 1017.94 1017.70 1017.46 1017.22 1016.90 1016.62 1016.38 1016.26 1016.06 1015.94 1015.82 1015.82 1015.86 1015.98 1016.34 1016.18 1016.06 1016.18 1016.22 1016.38 1016.42 1016.42 1016.42 1016.50 1016.54 1016.62 1016.62 1016.58 1016.50
1021.46 1021.30 1021.06 1020.86 1020.58 1020.38 1020.06 1019.82 1019.54 1019.26 1018.98 1018.66 1018.42 1018.06 1017.74 1017.42 1017.18 1016.90 1016.74 1016.50 1016.18 1016.14 1015.90 1015.74 1015.78 1015.74 1015.78 1015.82 1015.86 1015.78 1015.94 1016.10 1016.18 1016.30 1016.30 1016.34 1016.38 1016.58 1016.54 1016.50 1016.50 1016.46
1021.90 1021.66 1021.38 1021.10 1020.78 1020.50 1020.26 1019.98 1019.66 1019.34 1019.06 1018.82 1018.42 1018.06 1017.78 1017.50 1017.14 1016.82 1016.66 1016.70 1016.62 1016.46 1016.26 1015.98 1015.74 1015.66 1015.70 1015.70 1015.54 1015.58 1015.74 1015.78 1015.90 1016.06 1016.06 1016.22 1016.34 1016.34 1016.42 1016.38 1016.42 1016.46
1022.22 1021.98 1021.70 1021.46 1021.14 1020.86 1020.58 1020.30 1019.94 1019.58 1019.22 1018.82 1018.58 1018.22 1017.94 1017.66 1017.30 1016.94 1016.66 1016.54 1016.58 1016.46 1016.18 1016.10 1016.18 1016.18 1016.14 1015.98 1015.50 1015.42 1015.50 1015.70 1015.94 1015.90 1015.86 1015.98 1016.14 1016.14 1016.22 1016.30 1016.30 1016.30
1022.50 1022.30 1022.10 1021.82 1021.54 1021.30 1021.02 1020.70 1020.26 1019.82 1019.38 1019.10 1018.78 1018.42 1018.06 1017.82 1017.50 1017.10 1016.74 1016.58 1016.34 1016.14 1016.02 1016.06 1016.38 1016.26 1016.10 1015.98 1015.86 1015.50 1015.30 1015.50 1015.90 1015.98 1015.78 1015.82 1015.90 1015.94 1016.06 1016.18 1016.22 1016.22
1022.98 1022.78 1022.50 1022.26 1021.98 1021.78 1021.46 1021.06 1020.62 1020.18 1019.66 1019.30 1018.98 1018.62 1018.30 1017.94 1017.58 1017.26 1016.90 1016.74 1016.42 1016.10 1016.06 1015.86 1015.54 1015.58 1015.66 1015.58 1015.46 1015.70 1015.66 1015.38 1015.50 1015.82 1015.82 1015.70 1015.70 1015.74 1015.90 1016.06 1016.06 1016.14
1023.22 1023.02 1022.82 1022.54 1022.30 1022.10 1021.78 1021.38 1020.98 1020.54 1020.02 1019.62 1019.26 1018.86 1018.50 1018.18 1017.78 1017.46 1017.14 1016.86 1016.66 1016.58 1016.38 1016.06 1015.62 1015.34 1015.46 1015.74 1015.62 1015.50 1015.46 1015.66 1015.82 1015.66 1015.62 1015.70 1015.66 1015.54 1015.66 1015.82 1015.98 1015.90
1023.70 1023.42 1023.22 1022.98 1022.62 1022.30 1022.02 1021.66 1021.18 1020.74 1020.42 1019.94 1019.62 1019.26 1018.82 1018.38 1018.10 1017.70 1017.38 1017.10 1016.78 1016.66 1016.46 1016.14 1015.78 1015.62 1015.62 1015.70 1015.82 1015.86 1015.54 1015.50 1015.70 1015.90 1015.62 1015.58 1015.50 1015.50 1015.54 1015.70 1015.82 1015.98
1024.10 1023.90 1023.62 1023.26 1022.94 1022.62 1022.22 1021.74 1021.34 1021.02 1020.62 1020.30 1019.90 1019.58 1019.10 1018.66 1018.22 1017.86 1017.50 1017.26 1016.98 1016.66 1016.46 1016.10 1015.78 1015.70 1015.66 1015.42 1015.30 1015.62 1015.74 1015.50 1015.62 1015.82 1015.62 1015.46 1015.38 1015.42 1015.50 1015.62 1015.82 1015.94
1024.42 1024.18 1023.82 1023.46 1023.10 1022.70 1022.30 1021.94 1021.62 1021.26 1020.94 1020.50 1020.10 1019.78 1019.42 1018.94 1018.54 1018.14 1017.70 1017.34 1017.10 1016.82 1016.42 1016.10 1015.78 1015.54 1015.42 1015.34 1015.42 1015.54 1015.62 1015.54 1015.38 1015.38 1015.34 1015.30 1015.42 1015.50 1015.58 1015.62 1015.74 1015.94
1024.70 1024.34 1024.02 1023.66 1023.30 1022.94 1022.54 1022.22 1021.94 1021.58 1021.10 1020.70 1020.34 1020.02 1019.62 1019.14 1018.66 1018.30 1017.94 1017.50 1017.10 1016.86 1016.50 1016.10 1015.82 1015.62 1015.50 1015.30 1015.34 1015.34 1015.58 1015.42 1015.26 1015.26 1015.26 1015.26 1015.46 1015.58 1015.74 1015.82 1015.94 1016.14
1024.94 1024.62 1024.26 1023.94 1023.58 1023.26 1022.94 1022.54 1022.18 1021.78 1021.42 1021.02 1020.62 1020.26 1019.82 1019.34 1018.86 1018.50 1018.18 1017.86 1017.42 1016.98 1016.62 1016.30 1015.98 1015.66 1015.42 1015.22 1015.10 1015.14 1015.22 1015.14 1015.14 1015.22 1015.26 1015.26 1015.42 1015.62 1015.82 1015.98 1016.06 1016.26
1025.10 1024.86 1024.58 1024.22 1023.94 1023.54 1023.18 1022.78 1022.42 1022.06 1021.66 1021.30 1020.94 1020.54 1020.10 1019.66 1019.30 1018.86 1018.46 1018.14 1017.70 1017.26 1016.86 1016.50 1016.14 1015.82 1015.66 1015.50 1015.34 1015.38 1015.34 1015.50 1015.50 1015.30 1015.30 1015.34 1015.46 1015.50 1015.54 1015.86 1016.18 1016.42
1025.42 1025.14 1024.82 1024.50 1024.14 1023.82 1023.50 1023.14 1022.74 1022.30 1021.98 1021.66 1021.34 1020.94 1020.54 1020.10 1019.62 1019.26 1018.86 1018.42 1017.94 1017.50 1017.10 1016.78 1016.42 1016.10 1015.94 1015.74 1015.58 1015.38 1015.42 1015.62 1015.70 1015.70 1015.66 1015.50 1015.62 1015.70 1015.78 1015.90 1016.10 1016.46
1025.74 1025.46 1025.18 1024.82 1024.50 1024.18 1023.82 1023.42 1023.02 1022.62 1022.30 1022.06 1021.82 1021.54 1020.94 1020.38 1020.18 1019.70 1019.26 1018.78 1018.30 1017.90 1017.54 1017.06 1016.74 1016.46 1016.26 1015.98 1015.98 1015.98 1015.94 1015.62 1015.70 1015.98 1016.18 1015.98 1015.78 1015.82 1015.98 1016.06 1016.34 1016.58
1026.10 1025.82 1025.50 1025.22 1024.86 1024.50 1024.14 1023.78 1023.42 1023.14 1022.82 1022.42 1022.06 1021.66 1021.38 1020.98 1020.46 1020.18 1019.70 1019.22 1018.82 1018.42 1017.98 1017.42 1017.02 1016.94 1016.62 1016.02 1015.82 1016.22 1016.30 1015.74 1015.98 1016.14 1016.30 1016.30 1016.14 1016.06 1016.14 1016.26 1016.38 1016.46
1026.42 1026.22 1025.94 1025.58 1025.22 1024.82 1024.46 1024.10 1023.82 1023.50 1023.06 1022.74 1022.46 1022.30 1022.10 1021.74 1021.34 1020.78 1020.18 1019.70 1019.18 1018.78 1018.38 1017.86 1017.50 1017.30 1017.02 1016.58 1016.30 1016.18 1016.14 1015.94 1016.18 1016.30 1016.34 1016.50 1016.54 1016.58 1016.54 1016.46 1016.50 1016.50
1026.82 1026.58 1026.26 1025.90 1025.54 1025.14 1024.78 1024.46 1024.18 1023.90 1023.62 1023.14 1022.82 1022.42 1022.02 1021.66 1021.18 1020.86 1020.54 1020.14 1019.66 1019.14 1018.70 1018.38 1017.94 1017.54 1017.22 1016.90 1016.62 1016.42 1016.02 1015.86 1015.98 1016.10 1016.26 1016.58 1016.70 1016.62 1016.82 1016.82 1016.74 1016.62
1027.18 1026.90 1026.62 1026.22 1025.94 1025.54 1025.18 1024.90 1024.62 1024.30 1023.94 1023.54 1023.22 1022.86 1022.54 1022.14 1021.82 1021.46 1021.10 1020.62 1020.02 1019.50 1019.06 1018.82 1018.46 1017.94 1017.66 1017.26 1016.90 1016.66 1016.38 1016.14 1016.22 1016.26 1016.58 1016.62 1016.58 1016.70 1016.74 1016.98 1016.94 1016.70
1027.58 1027.30 1027.02 1026.66 1026.34 1026.02 1025.66 1025.30 1024.98 1024.66 1024.30 1023.90 1023.74 1023.38 1022.94 1022.58 1022.10 1021.62 1021.18 1020.86 1020.46 1019.98 1019.58 1019.34 1018.90 1018.30 1018.02 1017.74 1017.38 1016.98 1016.70 1016.54 1016.50 1015.98 1016.26 1016.50 1016.50 1016.58 1016.70 1016.82 1016.98 1016.74
1027.94 1027.62 1027.38 1027.02 1026.70 1026.38 1026.02 1025.66 1025.34 1025.06 1024.66 1024.22 1023.86 1023.54 1023.18 1022.70 1022.22 1021.86 1021.38 1020.86 1020.58 1020.26 1019.74 1019.50 1019.22 1018.70 1018.26 1018.06 1017.82 1017.46 1017.14 1016.82 1016.70 1016.42 1015.90 1016.02 1015.94 1015.98 1016.30 1016.58 1016.90 1016.82
1028.22 1027.94 1027.62 1027.30 1027.02 1026.70 1026.34 1025.98 1025.66 1025.26 1024.90 1024.50 1024.10 1023.82 1023.42 1022.98 1022.50 1022.14 1021.78 1021.26 1020.82 1020.46 1020.10 1019.82 1019.46 1019.02 1018.66 1018.34 1018.14 1017.86 1017.62 1017.18 1016.70 1016.34 1015.74 1015.58 1015.78 1015.90 1015.98 1016.22 1016.50 1016.78
Thickness
5620 5619 5618 5618 5617 5616 5616 5615 5615 5614 5614 5613 5612 5612 5612 5612 5613 5613 5612 5610 5609 5607 5605 5602 5599 5600 5601 5600 5598 5596 5596 5596 5596 5595 5593 5591 5590 5590 5589 5588 5588 5587
5617 5616 5615 5614 5613 5612 5612 5612 5611 5611 5610 5609 5608 5608 5608 5609 5609 5609 5609 5607 5606 5606 5606 5602 5599 5599 5598 5597 5595 5593 5593 5593 5592 5592 5590 5590 5588 5587 5586 5587 5586 5585
5613 5612 5611 5610 5609 5609 5608 5607 5607 5606 5606 5605 5604 5604 5603 5604 5605 5606 5606 5604 5603 5604 5603 5602 5599 5598 5595 5593 5592 5591 5589 5589 5588 5588 5587 5586 5586 5584 5583 5584 5584 5583
5609 5607 5606 5605 5604 5605 5604 5603 5603 5602 5601 5600 5599 5599 5599 5599 5600 5601 5602 5601 5600 5599 5600 5598 5596 5595 5592 5588 5588 5587 5586 5586 5585 5584 5584 5583 5583 5582 5581 5581 5581 5582
5605 5603 5603 5602 5601 5600 5599 5599 5597 5596 5595 5594 5594 5593 5593 5593 5594 5595 5596 5595 5596 5595 5595 5595 5592 5591 5589 5585 5584 5584 5583 5582 5580 5580 5580 5580 5579 5579 5578 5578 5579 5580
5600 5598 5598 5597 5596 5595 5594 5592 5591 5590 5589 5587 5587 5586 5586 5586 5588 5589 5589 5589 5589 5589 5589 5589 5587 5586 5585 5583 5582 5582 5580 5579 5577 5576 5576 5576 5576 5575 5575 5575 5576 5577
5593 5593 5592 5591 5590 5589 5587 5586 5584 5582 5581 5579 5578 5578 5577 5578 5578 5581 5582 5580 5580 5580 5581 5583 5582 5580 5580 5579 5580 5580 5577 5577 5576 5574 5574 5573 5573 5572 5572 5572 5573 5574
5587 5586 5585 5584 5583 5581 5578 5577 5575 5573 5572 5570 5568 5567 5567 5567 5567 5570 5572 5571 5571 5571 5572 5575 5573 5571 5572 5573 5575 5576 5575 5574 5572 5571 5572 5571 5570 5570 5570 5570 5570 5572
5581 5579 5578 5575 5573 5570 5568 5565 5564 5562 5560 5558 5556 5555 5554 5554 5555 5558 5559 5561 5562 5564 5565 5566 5565 5564 5566 5567 5570 5570 5570 5571 5569 5567 5568 5568 5568 5568 5567 5567 5568 5569
5575 5573 5570 5567 5563 5560 5556 5554 5552 5550 5548 5546 5544 5544 5543 5543 5543 5545 5547 5549 5551 5553 5554 5557 5560 5562 5564 5565 5566 5566 5565 5565 5565 5564 5564 5564 5565 5566 5566 5565 5566 5567
5571 5567 5564 5560 5556 5552 5548 5545 5542 5539 5537 5535 5534 5533 5533 5533 5533 5534 5537 5539 5541 5542 5543 5548 5555 5558 5559 5559 5559 5561 5561 5560 5559 5560 5560 5560 5560 5563 5564 5564 5564 5565
5563 5560 5557 5553 5549 5545 5540 5536 5533 5530 5527 5526 5524 5524 5524 5524 5524 5525 5526 5529 5531 5533 5534 5540 5546 5550 5551 5553 5553 5554 5557 5556 5555 5554 5556 5557 5557 5559 5562 5562 5562 5562
5555 5552 5548 5544 5540 5536 5531 5527 5524 5521 5519 5517 5516 5516 5517 5518 5518 5518 5518 5520 5522 5524 5528 5533 5539 5542 5545 5549 5551 5550 5550 5552 5552 5551 5553 5554 5554 5556 5558 5560 5559 5559
5548 5544 5540 5536 5532 5527 5523 5519 5515 5512 5511 5510 5510 5510 5510 5511 5511 5511 5512 5513 5515 5517 5522 5527 5533 5537 5540 5544 5546 5545 5544 5546 5549 5550 5551 5551 5551 5552 5555 5557 5556 5555
5541 5538 5534 5529 5524 5520 5516 5511 5508 5506 5504 5504 5504 5504 5504 5505 5506 5506 5506 5507 5509 5511 5516 5521 5527 5531 5534 5537 5540 5541 5541 5543 5546 5547 5547 5548 5548 5548 5551 5553 5552 5551
5535 5531 5527 5522 5518 5513 5508 5505 5502 5500 5499 5498 5498 5498 5499 5500 5500 5500 5500 5501 5503 5505 5509 5515 5521 5525 5529 5531 5534 5537 5538 5540 5542 5543 5544 5544 5545 5546 5548 5548 5548 5547
5530 5526 5521 5516 5511 5507 5503 5500 5497 5495 5494 5493 5493 5492 5493 5494 5494 5494 5495 5495 5497 5499 5503 5508 5514 5519 5522 5524 5528 5531 5532 5534 5536 5538 5539 5540 5541 5542 5544 5545 5544 5543
5525 5520 5516 5510 5506 5501 5498 5495 5492 5491 5489 5487 5487 5487 5487 5488 5488 5488 5490 5491 5492 5494 5497 5502 5508 5512 5516 5518 5521 5524 5526 5528 5530 5532 5533 5535 5536 5538 5540 5541 5540 5540
5520 5515 5510 5504 5500 5495 5493 5490 5488 5486 5484 5482 5481 5480 5481 5482 5482 5483 5484 5485 5487 5488 5491 5496 5501 5505 5509 5514 5516 5516 5519 5524 5526 5526 5527 5529 5531 5533 5534 5536 5536 5536
5514 5509 5503 5498 5494 5491 5488 5486 5484 5481 5479 5477 5476 5475 5476 5476 5476 5477 5478 5480 5481 5482 5485 5490 5494 5497 5502 5508 5511 5511 5514 5519 5521 5521 5521 5523 5525 5527 5529 5531 5532 5533
5509 5503 5498 5494 5490 5487 5484 5481 5479 5476 5475 5473 5472 5470 5469 5469 5470 5471 5473 5475 5476 5477 5480 5484 5488 5492 5495 5501 5505 5507 5512 5516 5517 5518 5519 5518 5519 5521 5524 5526 5528 5530
5504 5498 5494 5490 5486 5483 5480 5478 5475 5472 5470 5469 5467 5466 5466 5465 5466 5467 5468 5469 5471 5473 5475 5478 5482 5486 5491 5496 5498 5502 5509 5513 5514 5515 5516 5514 5515 5517 5519 5521 5524 5527
5499 5494 5489 5485 5481 5478 5476 5473 5471 5468 5467 5465 5463 5463 5462 5461 5462 5462 5463 5464 5467 5469 5471 5472 5475 5480 5485 5490 5494 5498 5504 5508 5509 5512 5512 5511 5513 5514 5516 5517 5519 5524
5494 5489 5484 5480 5477 5474 5471 5470 5467 5465 5463 5462 5460 5459 5458 5458 5458 5458 5459 5460 5462 5464 5466 5467 5470 5474 5479 5484 5489 5493 5498 5501 5504 5508 5511 5511 5512 5513 5515 5515 5516 5521
5490 5485 5480 5476 5472 5469 5467 5466 5464 5462 5460 5459 5457 5456 5455 5455 5455 5455 5457 5458 5459 5460 5463 5464 5465 5469 5473 5477 5482 5487 5491 5496 5500 5505 5509 5512 5513 5514 5516 5515 5515 5518
5486 5481 5476 5472 5468 5465 5464 5462 5460 5459 5458 5456 5455 5453 5452 5453 5453 5452 5453 5455 5456 5457 5459 5460 5462 5465 5468 5472 5476 5481 5485 5491 5497 5502 5506 5511 5513 5515 5516 5517 5515 5516